Time,TemperatureF,DewpointF,PressureIn,WindDirection,WindDirectionDegrees,WindSpeedMPH,WindSpeedGustMPH,Humidity,HourlyPrecipIn,Conditions,Clouds,dailyrainin,SoftwareType,DateUTC
2013-02-12 00:00:00,31.8,31.8,19.99,West,277,20.0,27.0,100,0.00,,---,0.00,VWS V13.00,2013-02-12 05:00:00,
2013-02-12 00:30:00,31.4,31.4,20.00,WSW,245,6.0,23.0,100,0.00,,---,0.00,VWS V13.00,2013-02-12 05:30:00,
2013-02-12 01:00:00,31.0,31.0,19.99,West,270,15.0,24.0,100,0.00,,---,0.00,VWS V13.00,2013-02-12 06:00:00,
2013-02-12 01:30:00,30.2,30.2,19.99,NNW,328,7.0,26.0,100,0.00,,---,0.00,VWS V13.00,2013-02-12 06:30:00,
2013-02-12 02:00:00,30.0,30.0,19.99,West,265,10.0,27.0,100,0.00,,---,0.00,VWS V13.00,2013-02-12 07:00:00,
2013-02-12 02:30:00,30.1,30.1,19.99,West,265,3.0,21.0,100,0.00,,---,0.00,VWS V13.00,2013-02-12 07:30:00,
2013-02-12 03:00:00,29.8,29.8,20.00,West,268,6.0,16.0,100,0.00,,---,0.00,VWS V13.00,2013-02-12 08:00:00,
2013-02-12 04:30:00,29.8,29.8,19.99,West,268,10.0,21.0,100,0.00,,---,0.00,VWS V13.00,2013-02-12 09:30:00,
2013-02-12 05:00:00,29.7,29.7,19.99,WNW,285,13.0,27.0,100,0.00,,---,0.00,VWS V13.00,2013-02-12 10:00:00,
2013-02-12 05:30:00,29.8,29.8,19.99,West,263,8.0,22.0,100,0.00,,---,0.00,VWS V13.00,2013-02-12 10:30:00,
2013-02-12 06:00:00,29.2,29.2,19.99,West,276,14.0,29.0,100,0.00,,---,0.00,VWS V13.00,2013-02-12 11:00:00,
2013-02-12 06:30:00,29.3,29.3,19.99,West,280,13.0,31.0,100,0.00,,---,0.00,VWS V13.00,2013-02-12 11:30:00,
2013-02-12 07:00:00,29.2,29.2,19.99,NW,304,8.0,39.0,100,0.00,,---,0.00,VWS V13.00,2013-02-12 12:00:00,
2013-02-12 07:30:00,29.5,29.5,20.00,West,274,15.0,34.0,100,0.00,,---,0.00,VWS V13.00,2013-02-12 12:30:00,
2013-02-12 08:00:00,29.9,29.9,19.99,WSW,258,15.0,29.0,100,0.00,,---,0.00,VWS V13.00,2013-02-12 13:00:00,
2013-02-12 08:30:00,30.6,30.6,19.99,WNW,301,13.0,37.0,100,0.00,,---,0.00,VWS V13.00,2013-02-12 13:30:00,
2013-02-12 09:00:00,31.4,31.4,19.99,West,269,20.0,34.0,100,0.00,,---,0.00,VWS V13.00,2013-02-12 14:00:00,
2013-02-12 09:30:00,32.9,32.9,20.00,West,272,13.0,34.0,100,0.00,,---,0.00,VWS V13.00,2013-02-12 14:30:00,
2013-02-12 10:00:00,32.3,32.3,19.99,NNW,329,4.0,34.0,100,0.00,,---,0.00,VWS V13.00,2013-02-12 15:00:00,
2013-02-12 10:30:00,31.8,31.8,19.99,West,275,19.0,34.0,100,0.00,,---,0.00,VWS V13.00,2013-02-12 15:30:00,
2013-02-12 11:00:00,31.9,31.9,19.99,West,270,10.0,27.0,100,0.00,,---,0.00,VWS V13.00,2013-02-12 16:00:00,
2013-02-12 11:30:00,32.4,32.4,19.99,WNW,287,7.0,30.0,100,0.00,,---,0.00,VWS V13.00,2013-02-12 16:30:00,
2013-02-12 12:00:00,32.3,32.3,19.99,West,263,17.0,28.0,100,0.00,,---,0.00,VWS V13.00,2013-02-12 17:00:00,
2013-02-12 12:30:00,33.4,33.4,20.00,West,271,27.0,30.0,100,0.00,,---,0.00,VWS V13.00,2013-02-12 17:30:00,
2013-02-12 13:00:00,33.1,33.1,19.99,West,280,8.0,27.0,100,0.00,,---,0.00,VWS V13.00,2013-02-12 18:00:00,
2013-02-12 13:30:00,32.6,32.6,20.00,West,276,14.0,28.0,100,0.00,,---,0.00,VWS V13.00,2013-02-12 18:30:00,
2013-02-12 14:00:00,33.1,33.1,20.00,West,271,9.0,27.0,100,0.00,,---,0.00,VWS V13.00,2013-02-12 19:00:00,
2013-02-12 14:30:00,32.7,32.7,19.99,WSW,254,13.0,31.0,100,0.00,,---,0.00,VWS V13.00,2013-02-12 19:30:00,
2013-02-12 15:00:00,32.4,32.4,19.99,WNW,286,18.0,24.0,100,0.00,,---,0.00,VWS V13.00,2013-02-12 20:00:00,
2013-02-12 15:30:00,32.0,32.0,19.99,West,273,22.0,27.0,100,0.00,,---,0.00,VWS V13.00,2013-02-12 20:30:00,
2013-02-12 16:00:00,31.6,31.6,20.00,WNW,299,5.0,32.0,100,0.00,,---,0.00,VWS V13.00,2013-02-12 21:00:00,
2013-02-12 16:30:00,31.2,31.2,19.99,WSW,243,19.0,21.0,100,0.00,,---,0.00,VWS V13.00,2013-02-12 21:30:00,
2013-02-12 17:00:00,30.8,30.8,19.99,WNW,292,16.0,23.0,100,0.00,,---,0.00,VWS V13.00,2013-02-12 22:00:00,
2013-02-12 17:30:00,30.4,30.4,19.99,WNW,293,9.0,26.0,100,0.00,,---,0.00,VWS V13.00,2013-02-12 22:30:00,
2013-02-12 18:00:00,29.9,29.9,19.99,NNW,334,13.0,31.0,100,0.00,,---,0.00,VWS V13.00,2013-02-12 23:00:00,
2013-02-12 18:30:00,29.7,29.7,19.99,WNW,286,5.0,20.0,100,0.00,,---,0.00,VWS V13.00,2013-02-12 23:30:00,
2013-02-12 19:00:00,29.5,29.5,19.99,WNW,292,7.0,19.0,100,0.00,,---,0.00,VWS V13.00,2013-02-13 00:00:00,
2013-02-12 19:30:00,29.2,29.2,19.99,West,277,13.0,21.0,100,0.00,,---,0.00,VWS V13.00,2013-02-13 00:30:00,
2013-02-12 20:00:00,29.1,29.1,19.99,WNW,290,5.0,30.0,100,0.00,,---,0.00,VWS V13.00,2013-02-13 01:00:00,
2013-02-12 20:30:00,29.0,29.0,20.00,West,278,13.0,25.0,100,0.00,,---,0.00,VWS V13.00,2013-02-13 01:30:00,
2013-02-12 21:00:00,28.8,28.8,19.99,WSW,255,7.0,26.0,100,0.00,,---,0.00,VWS V13.00,2013-02-13 02:00:00,
2013-02-12 21:30:00,28.4,28.4,19.99,WNW,294,10.0,21.0,100,0.00,,---,0.00,VWS V13.00,2013-02-13 02:30:00,
2013-02-12 22:00:00,28.0,28.0,19.99,West,281,6.0,18.0,100,0.00,,---,0.00,VWS V13.00,2013-02-13 03:00:00,
2013-02-12 22:30:00,27.6,27.6,20.00,West,274,16.0,20.0,100,0.00,,---,0.00,VWS V13.00,2013-02-13 03:30:00,
2013-02-12 23:00:00,27.4,27.4,19.99,West,272,9.0,20.0,100,0.00,,---,0.00,VWS V13.00,2013-02-13 04:00:00,
2013-02-12 23:30:00,27.3,27.3,19.99,West,279,4.0,18.0,100,0.00,,---,0.00,VWS V13.00,2013-02-13 04:30:00,